1515103200.33,46720,6.13,71894.0,-8.75,-13.79,-13.01,0,*52
1515103201.58,46721,6.13,71894.8,-8.73,-13.65,-13.01,0,*58
1515103202.79,46722,6.13,71890.5,-8.75,-13.73,-12.93,0,*50
1515103204.05,46723,6.13,71888.3,-8.75,-13.79,-13.01,0,*51
1515103205.31,46724,6.13,71888.0,-8.77,-13.87,-13.15,0,*50
1515103206.55,46725,6.13,71884.3,-8.75,-13.87,-13.07,0,*50
1515103207.78,46726,6.13,71892.5,-8.75,-13.79,-13.15,0,*51
1515103209.01,46727,6.13,71884.5,-8.75,-13.87,-13.07,0,*52
1515103210.27,46728,6.13,71886.5,-8.73,-13.87,-13.15,0,*58
1515103211.5,46729,6.13,71890.8,-8.75,-13.79,-13.15,0,*5E
1515103212.73,46730,6.13,71892.8,-8.75,-13.87,-13.15,0,*57
1515103213.96,46731,6.13,71888.3,-8.75,-13.79,-13.07,0,*54
1515103215.24,46732,6.13,71886.3,-8.77,-13.83,-13.11,0,*57
1515103216.47,46733,6.13,71890.8,-8.75,-13.79,-13.15,0,*55
1515103217.7,46734,6.13,71878.3,-8.75,-13.87,-13.15,0,*53
1515103218.94,46735,6.13,71880.3,-8.75,-13.87,-13.19,0,*5E
1515103220.18,46736,6.13,71882.5,-8.75,-13.87,-13.23,0,*54
1515103221.42,46737,6.13,71886.3,-8.75,-14.01,-13.23,0,*5C
1515103222.66,46738,6.13,71876.3,-8.75,-14.01,-13.23,0,*53
1515103223.9,46739,6.13,71868.3,-8.77,-14.11,-13.43,0,*57
1515103225.14,46740,6.13,71868.0,-8.75,-14.05,-13.47,0,*5A
1515103226.4,46741,6.13,71860.0,-8.75,-14.05,-13.37,0,*5C
1515103227.62,46742,6.13,71868.3,-8.75,-13.93,-13.19,0,*5B
1515103228.85,46743,6.13,71878.3,-8.75,-13.87,-13.23,0,*56
1515103230.12,46744,6.13,71872.5,-8.77,-13.93,-13.29,0,*5C
1515103231.4,46745,6.13,71872.3,-8.77,-13.83,-13.19,0,*5F
1515103232.63,46746,6.13,71870.3,-8.75,-13.79,-13.15,0,*57
1515103233.87,46747,6.06,71876.8,-8.75,-13.87,-13.19,0,*5B
1515103235.16,46748,6.13,71882.8,-8.77,-13.97,-13.29,0,*54
1515103236.46,46749,6.13,71888.0,-8.77,-13.97,-13.29,0,*55
1515103237.74,46750,6.13,71880.5,-8.77,-13.97,-13.23,0,*57
1515103239.0,46751,6.13,71886.3,-8.77,-13.83,-13.07,0,*55
1515103240.27,46752,6.13,71880.8,-8.77,-13.61,-12.89,0,*5D
1515103241.52,46753,6.13,71872.3,-8.77,-13.55,-12.93,0,*50
1515103242.76,46754,6.13,71882.5,-8.77,-13.43,-12.93,0,*50
1515103243.97,46755,6.13,71888.0,-8.75,-13.47,-12.93,0,*57
1515103245.19,46756,6.13,71876.5,-8.75,-13.51,-12.93,0,*53
1515103246.4,46757,6.13,71882.5,-8.75,-13.47,-12.89,0,*5E
1515103247.66,46758,6.13,71882.5,-8.75,-13.33,-12.79,0,*5D
1515103248.93,46759,6.13,71886.5,-8.75,-13.37,-12.75,0,*54
1515103250.19,46760,6.13,71884.3,-8.75,-13.37,-12.79,0,*52
1515103251.46,46761,6.13,71882.8,-8.75,-13.37,-12.79,0,*53
1515103252.67,46762,6.13,71880.3,-8.75,-13.47,-12.89,0,*58
1515103253.9,46763,6.13,71876.0,-8.73,-13.47,-12.89,0,*5F
1515103255.19,46764,6.06,71862.5,-8.73,-13.61,-13.01,0,*5D
1515103256.44,46765,6.13,71876.0,-8.73,-13.65,-13.01,0,*58
1515103257.7,46766,6.13,71888.8,-8.73,-13.79,-13.15,0,*53
1515103258.91,46767,6.13,71882.3,-8.71,-13.73,-13.11,0,*5E
1515103260.12,46768,6.13,71880.0,-8.71,-13.47,-12.89,0,*56
1515103261.35,46769,6.13,71880.3,-8.71,-13.47,-12.83,0,*5D
1515103262.59,46770,6.13,71880.8,-8.71,-13.19,-12.61,0,*52
1515103263.83,46771,6.13,71890.5,-8.73,-13.65,-13.07,0,*5B
1515103265.08,46772,6.13,71884.8,-8.73,-13.93,-13.29,0,*5D
1515103266.35,46773,6.13,71888.5,-8.73,-14.01,-13.47,0,*58
1515103267.61,46774,6.13,71890.0,-8.73,-13.93,-13.33,0,*50
1515103268.87,46775,6.13,71886.3,-8.71,-13.33,-12.75,0,*5A
1515103270.08,46776,6.13,71884.5,-8.71,-13.47,-12.97,0,*56
1515103271.36,46777,6.13,71882.0,-8.73,-13.61,-13.01,0,*5F
1515103272.6,46778,6.13,71884.3,-8.71,-13.69,-13.01,0,*5A
1515103273.86,46779,6.13,71890.0,-8.73,-13.79,-13.23,0,*58
1515103275.07,46780,6.13,71872.3,-8.71,-13.55,-12.97,0,*5C
1515103276.28,46781,6.13,71882.8,-8.71,-13.47,-12.97,0,*5E
1515103277.52,46782,6.13,71884.8,-8.73,-13.47,-12.93,0,*5B
1515103278.75,46783,6.13,71882.8,-8.71,-13.69,-13.01,0,*5E
1515103279.96,46784,6.13,71876.3,-8.71,-13.73,-13.15,0,*57
1515103281.22,46785,6.13,71868.0,-8.71,-13.83,-13.29,0,*56
1515103282.49,46786,6.06,71876.3,-8.73,-13.79,-13.23,0,*58
1515103283.75,46787,6.13,71882.5,-8.73,-13.61,-13.07,0,*56
1515103284.98,46788,6.13,71880.8,-8.73,-13.73,-13.15,0,*59
1515103286.2,46789,6.13,71880.3,-8.71,-13.69,-13.19,0,*5D
1515103287.42,46790,6.06,71870.0,-8.71,-13.73,-13.19,0,*5E
1515103288.62,46791,6.13,71884.0,-8.71,-13.73,-13.15,0,*53
1515103289.86,46792,6.13,71882.5,-8.71,-13.73,-13.01,0,*55
1515103291.12,46793,6.13,71882.5,-8.71,-13.61,-13.01,0,*57
1515103292.33,46794,6.13,71882.0,-8.71,-13.55,-12.97,0,*59
1515103293.54,46795,6.13,71882.3,-8.71,-13.43,-12.97,0,*5F
1515103294.81,46796,6.13,71878.5,-8.73,-13.51,-13.01,0,*53
1515103296.07,46797,6.13,71880.8,-8.73,-13.61,-13.15,0,*54
1515103297.3,46798,6.13,71880.0,-8.73,-13.73,-13.15,0,*58
1515103298.53,46799,6.13,71886.3,-8.73,-13.73,-13.15,0,*59
1515103299.77,46800,6.13,71880.8,-8.73,-13.65,-13.07,0,*52
1515103301.0,46801,6.06,71876.3,-8.71,-13.47,-13.01,0,*57
1515103302.23,46802,6.13,71884.0,-8.71,-13.55,-13.01,0,*57
1515103303.46,46803,6.13,71876.3,-8.71,-13.61,-13.11,0,*50
1515103304.7,46804,6.13,71882.0,-8.71,-13.69,-13.01,0,*5E
1515103305.93,46805,6.06,71884.3,-8.71,-13.61,-13.11,0,*56
1515103307.15,46806,6.13,71890.5,-8.71,-13.55,-13.11,0,*52
1515103308.35,46807,6.13,71882.3,-8.71,-13.69,-13.15,0,*58
1515103309.57,46808,6.13,71878.3,-8.71,-13.69,-13.19,0,*5B
1515103310.79,46809,6.13,71882.8,-8.71,-13.69,-13.19,0,*5A
1515103312.01,46810,6.13,71880.5,-8.71,-13.69,-13.19,0,*52
1515103313.25,46811,6.13,71886.8,-8.69,-13.69,-13.19,0,*5A
1515103314.54,46812,6.13,71892.8,-8.73,-13.87,-13.33,0,*5A
1515103315.8,46813,6.13,71878.0,-8.71,-13.79,-13.29,0,*53
1515103317.01,46814,6.13,71872.5,-8.71,-13.73,-13.43,0,*52
1515103318.26,46815,6.13,71872.8,-8.73,-13.87,-13.47,0,*5E
1515103319.49,46816,6.13,71870.0,-8.71,-13.87,-13.43,0,*5B
1515103320.73,46817,6.13,71856.5,-8.71,-13.87,-13.43,0,*5A
1515103321.93,46818,6.13,71874.8,-8.71,-13.73,-13.43,0,*5E
1515103323.22,46819,6.13,71882.5,-8.73,-13.79,-13.33,0,*50
1515103324.48,46820,6.13,71870.3,-8.73,-13.87,-13.47,0,*58
1515103325.7,46821,6.13,71882.0,-8.73,-13.93,-13.47,0,*5C
1515103326.94,46822,6.13,71874.8,-8.71,-13.87,-13.43,0,*5C
1515103328.19,46823,6.13,71880.0,-8.73,-13.87,-13.47,0,*5B
1515103329.45,46824,6.13,71898.5,-8.73,-13.79,-13.23,0,*5F
1515103330.69,46825,6.13,71890.0,-8.73,-13.73,-13.23,0,*54
1515103331.93,46826,6.13,71902.3,-8.73,-13.73,-13.23,0,*57
1515103333.2,46827,6.13,71902.0,-8.73,-13.23,-12.79,0,*5D
1515103334.46,46828,6.13,71896.5,-8.73,-13.01,-12.39,0,*56
1515103335.73,46829,6.13,71886.8,-8.71,-12.83,-12.35,0,*52
1515103337.01,46830,6.13,71886.3,-8.69,-12.71,-12.15,0,*5C
1515103338.3,46831,6.13,71880.0,-8.69,-12.83,-12.35,0,*52
1515103339.51,46832,6.06,71876.5,-8.67,-12.89,-12.43,0,*54
1515103340.77,46833,6.13,71874.3,-8.69,-13.15,-12.75,0,*5A
1515103342.01,46834,6.13,71888.8,-8.67,-13.37,-12.93,0,*5B
1515103343.22,46835,6.13,71876.8,-8.67,-13.55,-13.11,0,*55
1515103344.44,46836,6.13,71880.3,-8.67,-13.51,-13.07,0,*55
1515103345.7,46837,6.13,71870.8,-8.69,-13.61,-13.15,0,*5A
1515103346.96,46838,6.13,71870.8,-8.67,-13.37,-12.83,0,*56
1515103348.22,46839,6.13,71864.3,-8.65,-13.23,-12.79,0,*55
1515103349.49,46840,6.13,71848.3,-8.65,-13.23,-12.79,0,*5B
1515103350.7,46841,6.13,71864.3,-8.63,-13.51,-13.07,0,*51
1515103351.94,46842,6.13,71874.0,-8.65,-13.51,-12.97,0,*5C
1515103353.18,46843,6.13,71868.0,-8.65,-13.55,-12.97,0,*59
1515103354.42,46844,6.06,71876.3,-8.65,-13.65,-12.97,0,*5D
1515103355.66,46845,6.13,71872.3,-8.65,-13.51,-12.93,0,*5F
1515103356.91,46846,6.06,71870.0,-8.63,-13.61,-13.01,0,*53
1515103358.12,46847,6.06,71878.8,-8.63,-13.69,-13.23,0,*5A
1515103359.33,46848,6.13,71880.3,-8.63,-13.73,-13.23,0,*5E
1515103360.57,46849,6.13,71876.3,-8.63,-13.79,-13.19,0,*5C
1515103361.83,46850,6.13,71870.3,-8.65,-13.97,-13.43,0,*5D
1515103363.12,46851,6.13,71886.5,-8.65,-13.97,-13.37,0,*5F
1515103364.39,46852,6.13,71888.0,-8.65,-13.97,-13.51,0,*5C
1515103365.63,46853,6.13,71876.8,-8.65,-14.15,-13.55,0,*54
1515103366.87,46854,6.13,71880.3,-8.65,-14.23,-13.69,0,*59
1515103368.1,46855,6.13,71878.5,-8.65,-14.37,-13.69,0,*5D
1515103369.33,46856,6.13,71874.8,-8.65,-14.29,-13.65,0,*5D
1515103370.56,46857,6.13,71878.3,-8.67,-14.43,-13.69,0,*5E
1515103371.81,46858,6.13,71882.5,-8.67,-14.43,-13.79,0,*50
1515103373.02,46859,6.13,71876.5,-8.67,-14.37,-13.69,0,*53
1515103374.25,46860,6.06,71886.3,-8.69,-14.33,-13.69,0,*53
1515103375.47,46861,6.13,71880.0,-8.67,-14.15,-13.51,0,*53
1515103376.71,46862,6.06,71888.0,-8.69,-14.19,-13.55,0,*56
1515103377.98,46863,6.13,71892.8,-8.69,-14.05,-13.47,0,*59
1515103379.19,46864,6.13,71886.3,-8.67,-14.23,-13.55,0,*57
1515103380.43,46865,6.13,71888.5,-8.69,-14.33,-13.73,0,*5D
1515103381.66,46866,6.06,71886.8,-8.69,-14.29,-13.69,0,*5E
1515103382.92,46867,6.13,71890.5,-8.69,-14.29,-13.61,0,*57
1515103384.13,46868,6.13,71888.3,-8.71,-14.29,-13.73,0,*52
1515103385.34,46869,6.06,71876.8,-8.71,-14.33,-13.73,0,*58
1515103386.61,46870,6.06,71890.5,-8.71,-14.47,-13.83,0,*5C
1515103387.87,46871,6.06,71878.0,-8.71,-14.47,-13.83,0,*5D
1515103389.13,46872,6.13,71892.0,-8.71,-14.43,-13.83,0,*5A
1515103390.39,46873,6.13,71884.8,-8.73,-14.37,-13.79,0,*5F
1515103391.63,46874,6.06,71892.8,-8.73,-14.23,-13.65,0,*50
1515103392.86,46875,6.13,71898.8,-8.73,-14.33,-13.65,0,*50
1515103394.1,46876,6.13,71898.0,-8.73,-14.33,-13.73,0,*54
1515103395.34,46877,6.06,71886.0,-8.73,-14.19,-13.65,0,*5A
1515103396.59,46878,6.13,71888.3,-8.73,-14.37,-13.79,0,*54
1515103397.85,46879,6.13,71882.0,-8.75,-14.51,-13.79,0,*53
1515103399.11,46880,6.06,71882.8,-8.75,-14.51,-13.87,0,*54
1515103400.34,46881,6.06,71880.0,-8.75,-14.61,-13.87,0,*56
1515103401.57,46882,6.13,71890.3,-8.77,-14.65,-13.93,0,*56
1515103402.87,46883,6.13,71894.3,-8.77,-14.55,-13.97,0,*50
1515103404.07,46884,6.06,71882.0,-8.75,-14.65,-13.93,0,*52
1515103405.33,46885,6.13,71890.5,-8.77,-14.55,-13.93,0,*52
1515103406.63,46886,6.06,71880.5,-8.77,-14.55,-13.97,0,*55
1515103407.89,46887,6.13,71876.0,-8.77,-14.65,-13.97,0,*57
1515103409.16,46888,6.13,71882.8,-8.77,-14.65,-13.97,0,*58
1515103410.41,46889,6.06,71884.3,-8.81,-14.69,-14.01,0,*54
1515103411.68,46890,6.06,71886.5,-8.81,-14.61,-13.97,0,*5C
1515103412.97,46891,6.06,71878.0,-8.81,-14.55,-13.97,0,*5A
1515103414.23,46892,6.13,71886.5,-8.81,-14.61,-13.97,0,*5E
1515103415.53,46893,6.13,71902.0,-8.81,-14.47,-13.97,0,*5B
1515103416.8,46894,6.06,71908.5,-8.83,-14.47,-13.97,0,*5E
1515103418.0,46895,6.06,71900.3,-8.83,-14.29,-13.69,0,*56
1515103419.21,46896,6.06,71902.0,-8.83,-14.29,-13.73,0,*5E
1515103420.46,46897,6.06,71890.5,-8.83,-14.15,-13.61,0,*53
1515103421.69,46898,6.13,71882.5,-8.81,-14.11,-13.47,0,*5E
1515103422.93,46899,6.06,71878.0,-8.83,-14.19,-13.61,0,*51
1515103424.17,46900,6.06,71884.0,-8.83,-14.29,-13.83,0,*5F
1515103425.4,46901,6.06,71888.0,-8.83,-14.33,-13.87,0,*51
1515103426.66,46902,6.06,71888.5,-8.83,-14.47,-13.87,0,*51
1515103427.93,46903,6.13,71888.3,-8.83,-14.43,-13.97,0,*55
1515103429.16,46904,6.06,71882.8,-8.81,-14.19,-13.69,0,*5E
1515103430.38,46905,6.13,71882.5,-8.83,-14.19,-13.73,0,*56
1515103431.58,46906,6.13,71880.3,-8.83,-14.29,-13.69,0,*5D
1515103432.79,46907,6.06,71884.5,-8.83,-14.33,-13.73,0,*5C
1515103434.02,46908,6.13,71884.5,-8.83,-14.33,-13.83,0,*5C
1515103435.23,46909,6.13,71890.0,-8.83,-14.29,-13.73,0,*59
1515103436.46,46910,6.13,71884.0,-8.83,-14.33,-13.87,0,*51
1515103437.69,46911,6.06,71886.3,-8.85,-14.33,-13.87,0,*56
1515103438.92,46912,6.13,71890.0,-8.85,-14.33,-13.87,0,*55
1515103440.18,46913,6.13,71892.5,-8.85,-14.43,-13.87,0,*53
1515103441.41,46914,6.06,71888.8,-8.87,-14.37,-13.93,0,*50
1515103442.68,46915,6.13,71896.5,-8.87,-14.47,-13.93,0,*56
1515103443.91,46916,6.13,71886.3,-8.87,-14.37,-13.93,0,*52
1515103445.17,46917,6.06,71888.5,-8.87,-14.37,-13.87,0,*56
1515103446.41,46918,6.06,71892.8,-8.87,-14.37,-13.93,0,*5C
1515103447.64,46919,6.13,71890.0,-8.85,-14.33,-13.87,0,*5E
1515103448.9,46920,6.13,71894.0,-8.87,-14.61,-14.01,0,*58
1515103450.16,46921,6.13,71896.3,-8.87,-14.65,-14.05,0,*59
1515103451.46,46922,6.13,71898.5,-8.87,-14.47,-14.01,0,*5E
1515103452.71,46923,6.13,71898.0,-8.91,-14.55,-14.11,0,*5A
1515103453.98,46924,6.06,71896.0,-8.89,-14.51,-14.01,0,*51
1515103455.25,46925,6.06,71900.8,-8.89,-14.47,-14.01,0,*57
1515103456.52,46926,6.13,71906.8,-8.89,-14.47,-14.01,0,*54
1515103457.81,46927,6.06,71906.0,-8.91,-14.51,-14.05,0,*5F
1515103459.1,46928,6.06,71912.3,-8.91,-14.51,-14.05,0,*50
1515103460.34,46929,6.06,71908.8,-8.89,-14.37,-13.97,0,*54
1515103461.62,46930,6.06,71904.3,-8.91,-14.43,-13.97,0,*56
1515103462.88,46931,6.13,71902.5,-8.91,-14.55,-14.11,0,*59
1515103464.16,46932,6.13,71900.0,-8.91,-14.51,-14.05,0,*5B
1515103465.39,46933,6.06,71892.5,-8.91,-14.23,-13.93,0,*57
1515103466.65,46934,6.06,71888.8,-8.91,-14.43,-14.11,0,*5B
1515103467.91,46935,6.06,71878.8,-8.91,-14.55,-14.23,0,*5C
1515103469.13,46936,6.06,71876.3,-8.91,-14.69,-14.29,0,*5A
1515103470.36,46937,6.06,71878.0,-8.91,-14.65,-14.29,0,*57
1515103471.61,46938,6.06,71882.0,-8.91,-14.79,-14.29,0,*55
1515103472.84,46939,6.06,71878.5,-8.93,-14.43,-14.11,0,*54
1515103474.08,46940,6.06,71890.3,-8.93,-14.15,-13.87,0,*51
1515103475.34,46941,6.06,71880.5,-8.95,-13.87,-13.43,0,*52
1515103476.58,46942,6.06,71880.8,-8.93,-13.37,-12.89,0,*5B
1515103477.83,46943,6.06,71882.3,-8.91,-13.07,-12.57,0,*58
1515103479.06,46944,6.06,71884.8,-8.89,-13.15,-12.65,0,*54
1515103480.32,46945,6.06,71878.3,-8.91,-12.97,-12.35,0,*52
1515103481.56,46946,6.06,71874.0,-8.89,-12.79,-12.21,0,*5D
1515103482.8,46947,6.13,71874.8,-8.87,-12.89,-12.47,0,*5D
1515103484.06,46948,6.06,71872.5,-8.87,-13.07,-12.65,0,*55
1515103485.29,46949,6.06,71876.3,-8.85,-13.15,-12.71,0,*50
1515103486.55,46950,6.06,71882.3,-8.81,-13.15,-12.83,0,*51
1515103487.81,46951,6.13,71890.3,-8.81,-13.15,-12.75,0,*59
1515103489.04,46952,6.06,71884.8,-8.83,-13.11,-12.61,0,*59
1515103490.31,46953,6.06,71882.0,-8.81,-13.23,-12.75,0,*5E
1515103491.57,46954,6.06,71884.5,-8.81,-13.23,-12.83,0,*50
1515103492.86,46955,6.06,71884.0,-8.81,-13.29,-12.75,0,*52
1515103494.14,46956,6.06,71884.8,-8.77,-13.23,-12.79,0,*5E
1515103495.4,46957,6.06,71886.3,-8.77,-13.07,-12.53,0,*51
1515103496.65,46958,6.06,71888.0,-8.75,-12.93,-12.53,0,*50
1515103497.89,46959,6.06,71892.0,-8.75,-13.23,-12.79,0,*53
1515103499.12,46960,6.06,71882.5,-8.75,-13.15,-12.61,0,*55
1515103500.36,46961,6.06,71890.0,-8.75,-12.93,-12.35,0,*5A
1515103501.57,46962,6.06,71886.8,-8.71,-12.89,-12.29,0,*5B
1515103502.78,46963,6.06,71880.5,-8.71,-13.11,-12.47,0,*52
1515103504.0,46964,6.06,71888.0,-8.71,-12.97,-12.43,0,*5E
1515103505.21,46965,6.06,71894.8,-8.67,-12.93,-12.39,0,*51
1515103506.42,46966,6.13,71902.0,-8.67,-13.07,-12.43,0,*53
1515103507.66,46967,6.13,71896.3,-8.67,-13.07,-12.53,0,*53
1515103508.87,46968,6.06,71888.8,-8.67,-12.93,-12.39,0,*5C
1515103510.11,46969,6.06,71886.8,-8.65,-12.97,-12.39,0,*5B
1515103511.34,46970,6.06,71890.5,-8.65,-13.07,-12.43,0,*56
1515103512.61,46971,6.06,71880.5,-8.63,-13.01,-12.35,0,*56
1515103513.81,46972,6.06,71884.5,-8.63,-13.07,-12.39,0,*5F
1515103515.05,46973,6.06,71892.5,-8.63,-13.47,-12.79,0,*5E
1515103516.28,46974,6.06,71890.0,-8.63,-13.11,-12.53,0,*52
1515103517.52,46975,6.06,71890.0,-8.61,-13.11,-12.43,0,*50
1515103518.79,46976,6.06,71886.3,-8.61,-13.11,-12.35,0,*52
1515103519.99,46977,6.06,71884.0,-8.59,-12.97,-12.03,0,*52
1515103521.2,46978,6.13,71890.0,-8.59,-12.89,-12.29,0,*5A
1515103522.45,46979,6.13,71884.0,-8.59,-13.29,-12.57,0,*59
1515103523.67,46980,6.13,71886.5,-8.55,-13.19,-12.43,0,*55
1515103524.96,46981,6.06,71888.3,-8.51,-13.37,-12.53,0,*5D
1515103526.24,46982,6.06,71904.0,-8.51,-13.37,-12.53,0,*5E
1515103527.48,46983,6.06,71900.3,-8.51,-13.15,-12.39,0,*53
1515103528.72,46984,6.06,71902.8,-8.51,-13.23,-12.43,0,*5C
1515103529.98,46985,6.06,71896.8,-8.51,-13.51,-12.65,0,*5C
1515103531.24,46986,6.06,71902.8,-8.49,-13.61,-12.65,0,*55
1515103532.45,46987,6.06,71900.3,-8.49,-13.47,-12.47,0,*50
1515103533.71,46988,6.06,71900.8,-8.47,-13.33,-12.39,0,*5B
1515103534.95,46989,6.06,71894.8,-8.49,-13.23,-12.35,0,*59
1515103536.21,46990,6.06,71898.3,-8.47,-13.37,-12.47,0,*5F
1515103537.43,46991,6.06,71894.3,-8.45,-13.07,-12.21,0,*5F
1515103538.65,46992,6.06,71898.0,-8.45,-13.07,-12.21,0,*5C
1515103539.88,46993,6.06,71896.0,-8.43,-13.07,-12.21,0,*5B
1515103541.11,46994,6.06,71894.8,-8.43,-13.43,-12.47,0,*5C
1515103542.38,46995,6.06,71896.0,-8.43,-13.69,-12.71,0,*50
1515103543.64,46996,6.06,71892.5,-8.43,-13.73,-12.75,0,*5C
1515103544.9,46997,6.06,71894.8,-8.43,-13.73,-12.83,0,*54
1515103546.18,46998,6.06,71894.3,-8.43,-13.87,-12.83,0,*50
1515103547.44,46999,6.06,71894.0,-8.43,-13.73,-12.75,0,*53
1515103548.71,47000,6.06,71886.3,-8.43,-13.69,-12.71,0,*54
1515103549.93,47001,6.06,71894.3,-8.41,-13.65,-12.65,0,*5E
1515103551.18,47002,6.06,71898.3,-8.41,-13.73,-12.71,0,*5F
1515103552.44,47003,6.06,71898.5,-8.39,-13.69,-12.71,0,*5A
1515103553.67,47004,6.13,71910.5,-8.41,-13.69,-12.65,0,*57
1515103554.91,47005,6.06,71896.8,-8.41,-13.73,-12.79,0,*50
1515103556.15,47006,6.06,71896.3,-8.41,-14.01,-12.89,0,*5E
1515103557.4,47007,6.06,71896.8,-8.41,-13.97,-12.89,0,*57
1515103558.69,47008,6.06,71900.0,-8.39,-13.83,-12.83,0,*58
1515103559.97,47009,6.06,71894.8,-8.39,-13.87,-12.83,0,*5D
1515103561.23,47010,6.06,71892.0,-8.39,-13.87,-12.89,0,*5F
1515103562.49,47011,6.06,71888.3,-8.39,-14.11,-13.01,0,*57
1515103563.7,47012,6.06,71896.5,-8.41,-14.11,-13.11,0,*5A
1515103564.96,47013,6.06,71898.3,-8.39,-14.37,-13.29,0,*5B
1515103566.19,47014,6.06,71898.3,-8.39,-14.65,-13.51,0,*54
1515103567.4,47015,6.06,71898.0,-8.41,-14.11,-12.97,0,*52
1515103568.66,47016,6.06,71898.8,-8.41,-14.01,-13.01,0,*5E
1515103569.87,47017,6.06,71900.3,-8.41,-14.37,-13.43,0,*5C
1515103571.07,47018,6.06,71902.3,-8.41,-14.69,-13.73,0,*5B
1515103572.33,47019,6.06,71898.3,-8.41,-14.83,-13.87,0,*55
1515103573.58,47020,6.06,71906.5,-8.41,-14.97,-13.97,0,*5B
1515103574.84,47021,6.06,71906.8,-8.43,-15.07,-14.01,0,*58
1515103576.1,47022,6.06,71902.8,-8.43,-15.15,-14.01,0,*58
1515103577.34,47023,6.06,71906.5,-8.45,-15.07,-14.01,0,*5C
1515103578.59,47024,6.06,71902.3,-8.45,-14.93,-13.87,0,*5E
1515103579.8,47025,6.06,71900.8,-8.45,-14.69,-13.55,0,*55
1515103581.0,47026,6.06,71900.8,-8.45,-14.69,-13.69,0,*59
1515103582.24,47027,6.06,71898.3,-8.45,-14.89,-13.87,0,*56
1515103583.47,47028,6.06,71896.8,-8.47,-14.61,-13.51,0,*56
1515103584.73,47029,6.06,71888.8,-8.47,-14.51,-13.47,0,*53
1515103585.93,47030,6.06,71884.5,-8.49,-14.33,-13.47,0,*51
1515103587.15,47031,6.06,71894.0,-8.49,-14.23,-13.19,0,*5A
1515103588.4,47032,6.06,71894.3,-8.47,-14.23,-13.23,0,*5E
1515103589.63,47033,6.06,71896.0,-8.49,-14.23,-13.37,0,*54
1515103590.93,47034,6.06,71888.3,-8.47,-14.47,-13.61,0,*5C
1515103592.16,47035,6.06,71892.8,-8.47,-14.65,-13.65,0,*59
1515103593.39,47036,6.06,71892.0,-8.49,-14.75,-13.65,0,*55
1515103594.64,47037,6.06,71896.0,-8.47,-14.75,-13.73,0,*5D
1515103595.84,47038,6.06,71890.3,-8.49,-14.65,-13.73,0,*5D
1515103597.05,47039,6.06,71888.0,-8.49,-14.65,-13.73,0,*5C
1515103598.3,47040,6.06,71892.3,-8.49,-14.75,-13.79,0,*59
1515103599.58,47041,6.06,71894.3,-8.51,-14.83,-13.79,0,*58
1515103600.86,47042,6.06,71890.5,-8.51,-14.79,-13.87,0,*5F
1515103602.14,47043,6.06,71892.8,-8.51,-14.83,-13.79,0,*5A
1515103603.42,47044,6.06,71892.3,-8.51,-14.79,-13.83,0,*5D
1515103604.67,47045,6.06,71896.5,-8.55,-14.83,-13.87,0,*59
1515103605.93,47046,6.06,71898.5,-8.55,-14.83,-13.87,0,*5A
1515103607.12,47047,6.06,71894.3,-8.55,-14.69,-13.69,0,*5F
1515103608.34,47048,6.06,71890.8,-8.55,-14.69,-13.83,0,*54
1515103609.54,47049,6.06,71888.3,-8.55,-14.69,-13.73,0,*5A
1515103610.74,47050,6.06,71884.3,-8.55,-14.69,-13.73,0,*52
1515103611.93,47051,6.06,71884.8,-8.55,-14.61,-13.69,0,*50
1515103613.19,47052,6.06,71884.3,-8.61,-14.75,-13.73,0,*5A
1515103614.42,47053,6.06,71882.0,-8.59,-14.55,-13.69,0,*59
1515103615.64,47054,6.06,71880.0,-8.59,-14.55,-13.69,0,*5E
1515103616.88,47055,6.06,71884.3,-8.59,-14.47,-13.55,0,*53
1515103618.11,47056,6.06,71886.5,-8.61,-14.65,-13.65,0,*58
1515103619.3,47057,6.06,71894.8,-8.59,-14.69,-13.69,0,*52
1515103620.53,47058,6.06,71882.0,-8.61,-14.61,-13.65,0,*52
1515103621.8,47059,6.06,71898.0,-8.61,-14.47,-13.65,0,*57
1515103623.05,47060,6.06,71890.3,-8.61,-14.19,-13.23,0,*54
1515103624.29,47061,6.06,71880.8,-8.61,-14.19,-13.19,0,*5C
1515103625.58,47062,6.06,71884.0,-8.61,-13.87,-13.01,0,*56
1515103626.78,47063,6.06,71884.5,-8.59,-13.93,-12.97,0,*57
1515103628.06,47064,6.06,71904.8,-8.61,-14.05,-13.19,0,*54
1515103629.32,47065,6.06,71896.3,-8.61,-14.05,-13.15,0,*59
1515103630.59,47066,6.06,71896.3,-8.61,-14.05,-13.11,0,*5E
1515103631.85,47067,6.06,71890.0,-8.59,-14.01,-13.01,0,*51
1515103633.08,47068,6.06,71890.0,-8.59,-13.87,-12.97,0,*59
1515103634.3,47069,6.06,71886.8,-8.59,-13.93,-13.01,0,*53
1515103635.5,47070,6.06,71888.8,-8.59,-13.93,-13.07,0,*5D
1515103636.7,47071,6.06,71888.5,-8.55,-13.93,-13.15,0,*53
1515103637.94,47072,6.06,71894.3,-8.59,-14.01,-13.19,0,*5C
1515103639.22,47073,6.06,71886.5,-8.61,-13.97,-13.19,0,*5E
1515103640.45,47074,6.06,71890.0,-8.55,-13.87,-13.15,0,*53
1515103641.66,47075,6.06,71890.8,-8.59,-13.19,-12.43,0,*5B
1515103642.86,47076,6.06,71888.0,-8.59,-13.55,-12.89,0,*56
1515103644.09,47077,6.06,71890.3,-8.59,-13.83,-13.07,0,*5B
1515103645.32,47078,6.06,71882.8,-8.55,-13.93,-13.33,0,*5E
1515103646.59,47079,6.06,71892.8,-8.55,-14.01,-13.33,0,*53
1515103647.8,47080,6.06,71900.5,-8.55,-13.73,-13.15,0,*53
1515103649.04,47081,6.06,71898.0,-8.59,-13.83,-13.19,0,*5D
1515103650.25,47082,6.06,71898.5,-8.59,-13.73,-13.19,0,*51
1515103651.51,47083,6.06,71896.5,-8.55,-13.83,-13.29,0,*50
1515103652.77,47084,6.06,71894.5,-8.55,-13.87,-13.33,0,*58
1515103654.02,47085,6.06,71892.0,-8.59,-13.87,-13.33,0,*55
1515103655.23,47086,6.06,71886.0,-8.59,-13.73,-13.19,0,*55
1515103656.45,47087,6.06,71890.8,-8.59,-13.73,-13.19,0,*54
1515103657.69,47088,6.06,71898.5,-8.59,-13.83,-13.19,0,*54
1515103658.92,47089,6.06,71894.0,-8.55,-13.61,-13.07,0,*5A
1515103660.15,47090,6.13,71896.0,-8.59,-13.15,-12.71,0,*5D
1515103661.35,47091,6.13,71896.5,-8.55,-13.55,-13.07,0,*54
1515103662.56,47092,6.13,71906.0,-8.55,-13.43,-12.97,0,*58
1515103663.82,47093,6.06,71900.0,-8.51,-13.15,-12.79,0,*5E
1515103665.03,47094,6.06,71902.5,-8.55,-12.89,-12.47,0,*54
1515103666.29,47095,6.06,71906.3,-8.51,-12.79,-12.29,0,*56
1515103667.55,47096,6.06,71900.3,-8.51,-12.93,-12.57,0,*58
1515103668.81,47097,6.06,71908.5,-8.51,-12.83,-12.39,0,*50
1515103670.08,47098,6.06,71898.0,-8.49,-12.53,-12.11,0,*51
1515103671.34,47099,6.06,71904.3,-8.49,-12.53,-12.11,0,*50
1515103672.58,47100,6.06,71908.8,-8.49,-12.75,-12.39,0,*5F
1515103673.84,47101,6.06,71904.3,-8.49,-12.61,-12.35,0,*57
1515103675.1,47102,6.06,71900.8,-8.47,-12.61,-12.25,0,*5B
1515103676.34,47103,6.06,71910.3,-8.45,-12.57,-12.29,0,*51
1515103677.58,47104,6.06,71910.5,-8.45,-12.61,-12.21,0,*5B
1515103678.84,47105,6.06,71906.0,-8.43,-12.57,-12.21,0,*59
1515103680.08,47106,6.06,71912.0,-8.45,-12.61,-12.29,0,*51
1515103681.34,47107,6.06,71912.0,-8.43,-12.61,-12.43,0,*5A
1515103682.57,47108,6.06,71914.3,-8.41,-12.57,-12.39,0,*5F
1515103683.81,47109,6.06,71912.3,-8.41,-12.57,-12.43,0,*53
1515103685.06,47110,6.06,71918.8,-8.39,-12.57,-12.39,0,*59
1515103686.3,47111,6.06,71918.3,-8.41,-12.53,-12.39,0,*53
1515103687.56,47112,6.06,71918.5,-8.39,-12.57,-12.39,0,*5B
1515103688.85,47113,6.06,71914.5,-8.39,-12.57,-12.53,0,*56
1515103690.1,47114,6.06,71910.0,-8.37,-12.61,-12.61,0,*5B
1515103691.38,47115,6.06,71904.0,-8.39,-12.71,-12.65,0,*51
1515103692.64,47116,6.06,71904.5,-8.37,-12.61,-12.61,0,*59
1515103693.89,47117,6.06,71902.3,-8.37,-12.61,-12.53,0,*59
1515103695.15,47118,6.06,71904.3,-8.37,-12.65,-12.61,0,*53
1515103696.41,47119,6.06,71908.5,-8.37,-12.61,-12.53,0,*57
1515103697.67,47120,6.06,71906.5,-8.37,-12.53,-12.61,0,*5D
1515103698.94,47121,6.06,71896.8,-8.37,-12.53,-12.53,0,*5D
1515103700.2,47122,6.06,71894.5,-8.35,-12.53,-12.47,0,*59
1515103701.44,47123,6.06,71898.0,-8.35,-12.47,-12.47,0,*5D
1515103702.67,47124,6.06,71892.5,-8.35,-12.39,-12.39,0,*5A
1515103703.93,47125,6.06,71900.0,-8.35,-12.35,-12.39,0,*57
1515103705.17,47126,6.06,71902.3,-8.33,-12.35,-12.29,0,*53